Regional Weather Roundup
Issued by NWS Mobile, AL

Home | Current Version | Previous Version | Text Only | Print | Product List | Glossary On
Versions: 1 2 3 4 5 6 7 8 9 10 11 12 13 14 15 16 17 18 19 20 21 22 23 24 25 26 27 28 29 30 31 32 33 34 35 36 37 38 39 40 41 42 43 44 45 46 47 48 49 50
000
ASUS44 KMOB 281410
RWRMOB
REGIONAL WEATHER ROUNDUP
NATIONAL WEATHER SERVICE MOBILE AL
800 AM CST FRI NOV 28 2014

NOTE: "FAIR" INDICATES FEW OR NO CLOUDS BELOW 12,000 FEET WITH NO
      SIGNIFICANT WEATHER AND/OR OBSTRUCTIONS TO VISIBILITY.

  * THESE STATIONS ARE PART OF THE UNIVERSITY OF SOUTH ALABAMA
    MESONET AND ARE NOT UNDER NWS OR FAA QUALITY CONTROL.

ALZ061>064-281500-
COASTAL ALABAMA

CITY           SKY/WX    TMP DP  RH WIND       PRES   REMARKS
MOBILE REG APT SUNNY     39  31  72 NE8       30.44S
BROOKLEY FIELD SUNNY     42  32  67 NE8       30.46R
USA CAMPUS*      N/A    N/A N/A N/A E3        30.46R
DOG RIVER*     NOT AVBL


CITY           SKY/WX    TMP DP  RH WIND       PRES   REMARKS
MOUNT VERNON*    N/A     34  34 100 CALM      30.46R
SARALAND*      NOT AVBL
BAY MINETTE*   NOT AVBL
LOXLEY*          N/A    N/A N/A N/A NE9       30.43S
ROBERTSDALE*     N/A    N/A N/A N/A E3        30.43R
FAIRHOPE*        N/A    N/A N/A N/A NE8       30.43R
ELBERTA*         N/A    N/A N/A N/A NE3       30.43R
FOLEY*           N/A    N/A N/A N/A N5        30.39R
GRAND BAY*       N/A     39  32  75 NE5       30.43R
DAUPHIN ISLND* NOT AVBL
BON SCOUR NWR* NOT AVBL
GULF SHORES    SUNNY     38  31  77 NE6       30.43S

$$

ALZ051>060-281500-
INTERIOR SOUTHWEST AND SOUTH CENTRAL ALABAMA

CITY           SKY/WX    TMP DP  RH WIND       PRES   REMARKS
GREENVILLE     SUNNY     37  29  72 N5        30.43R
EVERGREEN      SUNNY     37  30  75 VRB3      30.45R
CASTLEBERRY*   NOT AVBL
ATMORE*          N/A    N/A N/A N/A NE7       30.44R
DIXIE*           N/A    N/A N/A N/A N3        30.40R
ANDALUSIA/OPP  SUNNY     41  30  65 VRB5      30.43R
ANDALUSIA*       N/A    N/A N/A N/A NE8       30.41R
FLORALA APT    SUNNY     38  31  76 NE7       30.44R
FLORALA*         N/A    N/A N/A N/A N5        30.39R

$$

FLZ001>006-281500-
WESTERN FLORIDA PANHANDLE

CITY           SKY/WX    TMP DP  RH WIND       PRES   REMARKS
PENSACOLA      SUNNY     40  30  67 NE8       30.42R
NAS PENSACOLA  SUNNY     42  34  73 NE8       30.43R
MILTON         SUNNY     38  30  73 VRB6      30.42S
WHTNG S FIELD  SUNNY     41  30  65 NE10      30.43S


CITY           SKY/WX    TMP DP  RH WIND       PRES   REMARKS
WALNUT HILL*   NOT AVBL
JAY*             N/A    N/A N/A N/A N5        30.43S
DUKE FIELD     SUNNY     38  31  77 NE8       30.42R
CRESTVIEW      SUNNY     39  31  72 NE6       30.43S
VALPARAISO     SUNNY     39  30  68 N12       30.41S
DESTIN         SUNNY     41  32  70 NE9       30.42R

$$

MSZ076-079-281500-
INTERIOR SOUTHEAST MISSISSIPPI

CITY           SKY/WX    TMP DP  RH WIND       PRES   REMARKS
LEAKESVILLE*     N/A    N/A N/A N/A CALM      30.44R
AGRICOLA*      NOT AVBL

$$

MARINE OBSERVATIONS

STATION/POSITION TIME  TEMP    WIND        PRES    WAVE
                       AIR SEA DIR/SP/G            HT/PER
                 (UTC) (F)     (DEG/KT/KT) (MB)    (FT/S)
PASCAGOULA       1400   41      30/  6/  8 1030.6S
PETIT BOIS ISLND 1400   45      50/ 11/ 13 1030.8S
GRAND BAY        1300   37      10/  3     1031.0S
KATRINA CUT      1300   45      70/ 16     1030.8R
CEDAR POINT      1300   42      50/ 12     1030.5S
E DAUPHIN ISLAND 1258   42      50/ 13/ 14 1030.7R
MIDDLE BAY LIGHT 1300   44      50/ 12     1029.8S
USCG MOBILE BAY  1400   40 57   30/  6/  9 1029.8R
STATE DOCKS      1400   42 57              1030.5R
MEAHER PARK      1300   38      10/  4     1031.2S
WEEKS BAY        1300   34                   N/A
FORT MORGAN      1400   45      70/ 12/ 15 1030.2R
12 S ORANGE BCH  1400   48 64   50/ 14/ 17 1029.6R   3/ 5
PENSACOLA BAY    1400   41 58   40/  6/ 10 1030.7R
64 S DAUPHIN ISL 1310   54 71   70/ 12/ 16 1030.1R   4/ 6
67 S FORT MORGAN 1300   56      60/ 12     1029.1R

$$

SELECTED LOCATIONS ACROSS THE REGION

CITY           SKY/WX    TMP DP  RH WIND       PRES   REMARKS
NEW ORLEANS    SUNNY     47  36  65 E8        30.43S
GULFPORT       SUNNY     40  32  73 NE6       30.44S
PASCAGOULA AP  SUNNY     39  32  76 CALM      30.45R
PASCAGOULA*      N/A    N/A N/A N/A NE2       30.44S
HATTIESBURG    SUNNY     35  33  92 CALM      30.47R
LAUREL         SUNNY     36  28  75 E3        30.45S
MERIDIAN       SUNNY     35  29  78 NE6       30.45S WCI  30
JACKSON        SUNNY     36  30  79 SE7       30.43S
MONTGOMERY     SUNNY     37  29  72 N7        30.46R
TROY           SUNNY     37  30  75 NE6       30.43R
KINSTON*       NOT AVBL
GENEVA*          N/A    N/A N/A N/A NE9       30.44S
ASHFORD*         N/A    N/A N/A N/A NE8       30.41R
DOTHAN         SUNNY     37  30  75 N7        30.45R
PANAMA CITY    SUNNY     41  32  70 N8        30.40S

$$




USA.gov is the U.S. government's official web portal to all federal, state and local government web resources and services.